Weather History for Estherville, IA

Change the Weather History Date:

Saturday, April 20, 2013

  Actual Average Record
Temperature  
Mean Temperature 32 °F 49 °F  
Max Temperature 43 °F 61 °F 88 °F (1987)
Min Temperature 21 °F 37 °F 21 °F (2013)
Degree Days  
Heating Degree Days 33 16  
Month to date heating degree days 573 406  
Since 1 July heating degree days 7411 7321  
Cooling Degree Days 0 0  
Month to date cooling degree days 0 0  
Year to date cooling degree days 0 0  
Moisture  
Dew Point 22 °F    
Average Humidity 64    
Maximum Humidity 84    
Minimum Humidity 43    
Precipitation  
Precipitation 0.00 in 0.13 in 2.10 in (1993)
Month to date precipitation 3.73 2.01  
Sea Level Pressure  
Sea Level Pressure 30.23 in    
Wind  
Wind Speed 9 mph (SE)    
Max Wind Speed 17 mph    
Max Gust Speed 21 mph    
Visibility 10 miles    
Events      
T = Trace of Precipitation, MM = Missing Value Source: NWS Daily Summary

Daily Weather History Graph

Daily Weather History Graph

Search for Another Location

Airport:

Trip Planner

Search our weather history database for the weather conditions in past years. The results will help you decide how hot, cold, wet, or windy it might be!

Date:

Astronomy

Apr. 20, 2013 Rise Set
Actual Time 6:28 AM CDT 8:08 PM CDT
Civil Twilight 5:57 AM CDT 8:38 PM CDT
Nautical Twilight 5:21 AM CDT 9:15 PM CDT
Astronomical Twilight 4:41 AM CDT 9:55 PM CDT
Moon 2:44 PM CDT (4/20) 3:27 AM CDT (4/20)
Length of Visible Light 14h 40m
Length of Day
13h 40m
Waxing Gibbous, 71% of the Moon is Illuminated
Apr 20
Waxing Gibbous
Apr 25
Full
May 2
Last Quarter
May 9
New
May 17
First Quarter

Hourly Weather History & Observations

Time (CDT) Temp. Windchill Dew Point Humidity Pressure Visibility Wind Dir Wind Speed Gust Speed Precip Events Conditions
12:52 AM 26.1 °F 15.6 °F 19.0 °F 75% 30.11 in 10.0 mi NW 11.5 mph - N/A   Clear
1:52 AM 25.0 °F 14.2 °F 19.0 °F 78% 30.13 in 10.0 mi NW 11.5 mph - N/A   Clear
2:52 AM 24.1 °F 13.7 °F 18.0 °F 77% 30.14 in 10.0 mi NW 10.4 mph - N/A   Clear
3:52 AM 21.9 °F 11.7 °F 17.1 °F 82% 30.15 in 10.0 mi NW 9.2 mph - N/A   Clear
4:52 AM 21.9 °F 11.7 °F 17.1 °F 82% 30.17 in 10.0 mi NW 9.2 mph - N/A   Clear
5:52 AM 21.0 °F 11.4 °F 17.1 °F 85% 30.18 in 10.0 mi NNW 8.1 mph - N/A   Clear
6:52 AM 21.0 °F 11.4 °F 16.0 °F 81% 30.21 in 10.0 mi NW 8.1 mph - N/A   Clear
7:52 AM 23.0 °F 13.1 °F 18.0 °F 81% 30.25 in 10.0 mi NW 9.2 mph - N/A   Clear
8:52 AM 26.1 °F 17.6 °F 19.9 °F 78% 30.27 in 10.0 mi NNW 8.1 mph - N/A   Clear
9:52 AM 28.0 °F 20.8 °F 21.0 °F 75% 30.28 in 10.0 mi North 6.9 mph - N/A   Clear
10:52 AM 30.0 °F 26.5 °F 23.0 °F 75% 30.30 in 10.0 mi Variable 3.5 mph - N/A   Clear
11:52 AM 34.0 °F 28.8 °F 23.0 °F 64% 30.29 in 10.0 mi East 5.8 mph - N/A   Clear
12:52 PM 36.0 °F 32.1 °F 21.0 °F 55% 30.29 in 10.0 mi SSE 4.6 mph - N/A   Clear
1:52 PM 37.0 °F 32.4 °F 19.9 °F 50% 30.29 in 10.0 mi South 5.8 mph - N/A   Clear
2:52 PM 39.0 °F 32.3 °F 21.9 °F 50% 30.27 in 10.0 mi SE 10.4 mph - N/A   Clear
3:52 PM 42.1 °F 37.1 °F 21.9 °F 45% 30.26 in 10.0 mi South 8.1 mph - N/A   Clear
4:52 PM 41.0 °F 35.2 °F 23.0 °F 49% 30.25 in 10.0 mi SE 9.2 mph - N/A   Clear
5:52 PM 41.0 °F 33.9 °F 24.1 °F 51% 30.24 in 10.0 mi ESE 12.7 mph - N/A   Mostly Cloudy
6:52 PM 41.0 °F 34.3 °F 24.1 °F 51% 30.22 in 10.0 mi SE 11.5 mph - N/A   Overcast
7:52 PM 39.9 °F 32.5 °F 25.0 °F 55% 30.24 in 10.0 mi SE 12.7 mph - N/A   Overcast
8:52 PM 39.0 °F 31.8 °F 26.1 °F 60% 30.25 in 10.0 mi SE 11.5 mph - N/A   Overcast
9:52 PM 37.9 °F 30.9 °F 28.0 °F 68% 30.25 in 10.0 mi SE 10.4 mph - N/A   Overcast
10:52 PM 37.9 °F 30.5 °F 28.0 °F 68% 30.25 in 10.0 mi ESE 11.5 mph - N/A   Overcast
11:52 PM 37.0 °F 31.0 °F 28.9 °F 73% 30.26 in 10.0 mi SE 8.1 mph - N/A   Overcast